�������l�o���
Date,Time,MP-1(��Sv/h),MP-2(��Sv/h),MP-3(��Sv/h),MP-4(��Sv/h),MP-5(��Sv/h),MP-6(��Sv/h),MP-7(��Sv/h),����,����(m/s),���J
2020/07/02,00:00,0.173,0.158,0.251,0.240,0.245,0.136,0.085,��,6.8,�L
2020/07/02,00:10,0.171,0.158,0.249,0.239,0.245,0.135,0.086,��,8.8,�L
2020/07/02,00:20,0.170,0.157,0.247,0.241,0.243,0.136,0.086,��,8.2,�L
2020/07/02,00:30,0.171,0.156,0.250,0.238,0.245,0.136,0.086,��,8.1,�L
2020/07/02,00:40,0.170,0.157,0.247,0.241,0.242,0.136,0.086,��,6.6,�L
2020/07/02,00:50,0.170,0.157,0.248,0.238,0.244,0.136,0.085,��,7.1,�L
2020/07/02,01:00,0.169,0.156,0.247,0.239,0.245,0.135,0.086,��,8.4,�L
2020/07/02,01:10,0.171,0.157,0.248,0.237,0.244,0.136,0.085,��,11.4,�L
2020/07/02,01:20,0.168,0.156,0.247,0.236,0.245,0.136,0.085,��쐼,6.4,�L
2020/07/02,01:30,0.169,0.156,0.246,0.238,0.242,0.134,0.086,��,6.8,�L
2020/07/02,01:40,0.170,0.155,0.247,0.237,0.244,0.135,0.085,��,8.6,�L
2020/07/02,01:50,0.168,0.155,0.244,0.237,0.243,0.134,0.086,��,8.3,�L
2020/07/02,02:00,0.169,0.155,0.245,0.235,0.241,0.136,0.085,��,11.1,�L
2020/07/02,02:10,0.168,0.156,0.245,0.237,0.246,0.136,0.085,��,11.5,�L
2020/07/02,02:20,0.169,0.155,0.246,0.235,0.242,0.135,0.086,��,10.3,��
2020/07/02,02:30,0.168,0.155,0.245,0.234,0.242,0.134,0.083,��쐼,8.2,��
2020/07/02,02:40,0.166,0.155,0.242,0.237,0.243,0.133,0.083,�쐼,8.1,��
2020/07/02,02:50,0.167,0.153,0.245,0.234,0.240,0.132,0.083,��쐼,7.0,��
2020/07/02,03:00,0.165,0.153,0.242,0.234,0.243,0.132,0.082,�쐼,7.7,��
2020/07/02,03:10,0.165,0.153,0.243,0.235,0.239,0.131,0.082,��쐼,8.6,��
2020/07/02,03:20,0.166,0.151,0.244,0.231,0.238,0.130,0.081,��,7.0,��
2020/07/02,03:30,0.165,0.152,0.241,0.233,0.241,0.131,0.081,��쐼,6.0,��
2020/07/02,03:40,0.166,0.152,0.243,0.232,0.238,0.130,0.081,��,6.7,��
2020/07/02,03:50,0.164,0.151,0.242,0.233,0.238,0.130,0.080,��,7.1,��
2020/07/02,04:00,0.163,0.150,0.242,0.233,0.240,0.130,0.080,��쐼,7.2,��
2020/07/02,04:10,0.164,0.150,0.243,0.232,0.237,0.129,0.080,��쐼,5.4,��
2020/07/02,04:20,0.163,0.150,0.241,0.234,0.239,0.129,0.079,�쐼,4.1,��
2020/07/02,04:30,0.164,0.151,0.243,0.231,0.239,0.129,0.081,��,2.9,��
2020/07/02,04:40,0.165,0.149,0.242,0.232,0.238,0.129,0.079,��쓌,3.7,��
2020/07/02,04:50,0.163,0.151,0.241,0.233,0.240,0.130,0.079,��쓌,4.3,��
2020/07/02,05:00,0.164,0.151,0.242,0.231,0.238,0.130,0.079,��쐼,3.9,��
2020/07/02,05:10,0.163,0.151,0.241,0.233,0.239,0.130,0.079,��,4.3,��
2020/07/02,05:20,0.164,0.151,0.243,0.231,0.239,0.130,0.079,��쐼,3.5,��
2020/07/02,05:30,0.163,0.150,0.243,0.233,0.236,0.129,0.080,��쐼,2.9,��
2020/07/02,05:40,0.162,0.151,0.241,0.233,0.241,0.130,0.080,��,1.8,��
2020/07/02,05:50,0.165,0.150,0.243,0.232,0.240,0.129,0.078,��쐼,1.8,��
2020/07/02,06:00,0.163,0.150,0.242,0.234,0.237,0.128,0.079,��쐼,1.7,��
2020/07/02,06:10,0.165,0.151,0.242,0.232,0.240,0.129,0.080,��쐼,2.1,��
2020/07/02,06:20,0.164,0.149,0.243,0.231,0.238,0.129,0.078,��,2.2,��
2020/07/02,06:30,0.163,0.151,0.240,0.234,0.237,0.128,0.080,��,2.2,��
2020/07/02,06:40,0.165,0.150,0.242,0.233,0.238,0.130,0.080,��,2.7,��
2020/07/02,06:50,0.164,0.150,0.244,0.232,0.240,0.130,0.079,��,2.8,��
2020/07/02,07:00,0.162,0.149,0.241,0.233,0.239,0.129,0.080,��,2.4,��
2020/07/02,07:10,0.165,0.149,0.241,0.234,0.237,0.129,0.079,��쐼,2.1,��
2020/07/02,07:20,0.165,0.150,0.240,0.233,0.236,0.130,0.079,���쐼,1.4,��
2020/07/02,07:30,0.163,0.150,0.240,0.231,0.238,0.129,0.079,�k��,1.4,��
2020/07/02,07:40,0.163,0.149,0.240,0.231,0.240,0.129,0.079,�k�k��,4.6,��
2020/07/02,07:50,0.165,0.152,0.244,0.230,0.240,0.129,0.080,�k��,2.8,��
2020/07/02,08:00,0.165,0.151,0.243,0.234,0.239,0.130,0.080,���k��,3.7,��
2020/07/02,08:10,0.164,0.151,0.243,0.235,0.236,0.130,0.080,�k��,3.9,��
2020/07/02,08:20,0.164,0.151,0.242,0.232,0.238,0.130,0.080,�k��,4.5,��
2020/07/02,08:30,0.167,0.152,0.245,0.232,0.242,0.129,0.080,�k��,3.3,��
2020/07/02,08:40,0.165,0.151,0.243,0.234,0.241,0.130,0.080,�k��,4.1,��
2020/07/02,08:50,0.162,0.150,0.241,0.235,0.239,0.130,0.080,�k�k��,3.9,��
2020/07/02,09:00,0.165,0.150,0.244,0.234,0.237,0.130,0.080,�k�k��,4.4,��
2020/07/02,09:10,0.167,0.150,0.244,0.233,0.238,0.130,0.081,�k�k��,4.6,��
2020/07/02,09:20,0.165,0.150,0.245,0.231,0.239,0.131,0.080,�k,4.2,��
2020/07/02,09:30,0.163,0.151,0.242,0.233,0.238,0.130,0.080,�k,4.1,��
2020/07/02,09:40,0.162,0.152,0.242,0.233,0.238,0.130,0.080,�k,3.9,��
2020/07/02,09:50,0.164,0.151,0.242,0.232,0.239,0.131,0.080,�k�k��,3.9,��
2020/07/02,10:00,0.166,0.151,0.242,0.233,0.240,0.131,0.080,�k�k��,3.2,��
2020/07/02,10:10,0.167,0.151,0.243,0.234,0.239,0.130,0.080,�k�k��,3.4,��
2020/07/02,10:20,0.165,0.151,0.243,0.233,0.240,0.131,0.080,�k�k��,3.7,��
2020/07/02,10:30,0.163,0.151,0.242,0.232,0.240,0.131,0.081,�k�k��,2.5,��
2020/07/02,10:40,0.164,0.150,0.242,0.232,0.239,0.132,0.080,�k�k��,2.3,��
2020/07/02,10:50,0.163,0.152,0.247,0.234,0.240,0.131,0.079,�k��,2.0,��
2020/07/02,11:00,0.166,0.152,0.247,0.233,0.239,0.131,0.079,�k��,3.5,��
2020/07/02,11:10,0.168,0.153,0.247,0.234,0.239,0.131,0.081,�k�k��,2.1,��
2020/07/02,11:20,0.166,0.151,0.245,0.234,0.241,0.131,0.081,�k�k��,2.2,��
2020/07/02,11:30,0.165,0.151,0.243,0.233,0.241,0.131,0.081,�k�k��,1.4,��
2020/07/02,11:40,0.165,0.151,0.244,0.234,0.241,0.131,0.081,�k�k��,2.0,��
2020/07/02,11:50,0.164,0.152,0.246,0.234,0.241,0.132,0.080,�k�k��,2.2,��
2020/07/02,12:00,0.164,0.150,0.247,0.234,0.241,0.132,0.081,�k,1.2,��
2020/07/02,12:10,0.165,0.151,0.247,0.235,0.242,0.132,0.080,�k,1.4,��
2020/07/02,12:20,0.165,0.152,0.245,0.235,0.241,0.132,0.080,���k��,0.9,��
2020/07/02,12:30,0.165,0.151,0.246,0.235,0.241,0.132,0.080,�k��,1.0,��
2020/07/02,12:40,0.164,0.152,0.245,0.236,0.243,0.132,0.080,���k��,1.6,��
2020/07/02,12:50,0.165,0.152,0.245,0.236,0.241,0.132,0.081,��,1.5,��
2020/07/02,13:00,0.165,0.152,0.246,0.236,0.243,0.132,0.081,��,1.6,��
2020/07/02,13:10,0.165,0.153,0.246,0.236,0.243,0.132,0.080,��,1.6,��
2020/07/02,13:20,0.165,0.152,0.246,0.237,0.243,0.130,0.080,��,1.9,��
2020/07/02,13:30,0.165,0.153,0.246,0.236,0.242,0.131,0.080,�쓌,1.4,��
2020/07/02,13:40,0.166,0.152,0.245,0.237,0.242,0.131,0.081,��,1.3,��
2020/07/02,13:50,0.166,0.153,0.245,0.237,0.242,0.131,0.080,-,CALM,��
2020/07/02,14:00,0.165,0.151,0.245,0.236,0.242,0.132,0.080,-,CALM,��
2020/07/02,14:10,0.165,0.151,0.244,0.235,0.241,0.132,0.081,�k�k��,1.2,��
2020/07/02,14:20,0.165,0.153,0.244,0.235,0.241,0.132,0.080,�k,1.5,��
2020/07/02,14:30,0.168,0.154,0.246,0.236,0.240,0.132,0.080,�k,2.4,��
2020/07/02,14:40,0.167,0.153,0.249,0.235,0.239,0.132,0.080,�k�k��,2.4,��
2020/07/02,14:50,0.167,0.152,0.248,0.240,0.240,0.131,0.079,�k�k��,2.0,��
2020/07/02,15:00,0.165,0.152,0.246,0.239,0.240,0.131,0.081,�k�k��,2.2,��
2020/07/02,15:10,0.168,0.153,0.247,0.237,0.239,0.131,0.081,�k��,1.9,��
2020/07/02,15:20,0.167,0.153,0.245,0.236,0.240,0.131,0.081,�k��,2.0,��
2020/07/02,15:30,0.166,0.152,0.248,0.234,0.241,0.131,0.080,�k�k��,1.1,��
2020/07/02,15:40,0.165,0.153,0.248,0.237,0.245,0.132,0.081,�k,0.9,��
2020/07/02,15:50,0.168,0.153,0.246,0.239,0.242,0.131,0.080,�k�k��,0.7,��
2020/07/02,16:00,0.167,0.153,0.245,0.238,0.242,0.132,0.080,�k�k��,1.1,��
2020/07/02,16:10,0.167,0.152,0.245,0.238,0.242,0.131,0.080,�k��,1.3,��
2020/07/02,16:20,0.166,0.152,0.245,0.238,0.242,0.131,0.080,���k��,0.8,��
2020/07/02,16:30,0.165,0.152,0.246,0.236,0.241,0.131,0.080,-,CALM,��
2020/07/02,16:40,0.165,0.152,0.249,0.236,0.243,0.131,0.081,-,CALM,��
2020/07/02,16:50,0.165,0.153,0.249,0.236,0.241,0.132,0.081,���쐼,0.8,��
2020/07/02,17:00,0.167,0.153,0.247,0.238,0.240,0.132,0.081,��,3.2,��
2020/07/02,17:10,0.168,0.152,0.245,0.239,0.240,0.132,0.081,���k��,4.4,��
2020/07/02,17:20,0.166,0.154,0.248,0.238,0.240,0.131,0.081,���k��,4.9,��
2020/07/02,17:30,0.166,0.154,0.249,0.236,0.240,0.133,0.081,���k��,6.1,��
2020/07/02,17:40,0.169,0.153,0.248,0.238,0.241,0.132,0.081,��,4.0,��
2020/07/02,17:50,0.167,0.153,0.246,0.239,0.241,0.132,0.081,��,5.9,��
2020/07/02,18:00,0.166,0.154,0.246,0.237,0.241,0.131,0.081,���k��,6.2,��
2020/07/02,18:10,0.166,0.154,0.247,0.237,0.239,0.132,0.080,���k��,4.0,��
2020/07/02,18:20,0.166,0.153,0.250,0.239,0.241,0.132,0.081,��,4.0,��
2020/07/02,18:30,0.167,0.152,0.248,0.240,0.240,0.131,0.081,��,4.1,��
2020/07/02,18:40,0.169,0.153,0.246,0.238,0.245,0.132,0.080,���k��,3.9,��
2020/07/02,18:50,0.167,0.154,0.248,0.236,0.243,0.131,0.081,���k��,1.8,��
2020/07/02,19:00,0.166,0.152,0.249,0.239,0.241,0.132,0.081,��,1.8,��
2020/07/02,19:10,0.167,0.153,0.249,0.238,0.243,0.131,0.080,��,1.4,��
2020/07/02,19:20,0.169,0.154,0.246,0.237,0.243,0.132,0.081,���k��,1.2,��
2020/07/02,19:30,0.167,0.153,0.249,0.237,0.243,0.131,0.081,��,1.2,��
2020/07/02,19:40,0.166,0.151,0.249,0.240,0.241,0.132,0.080,�k��,2.3,��
2020/07/02,19:50,0.168,0.153,0.247,0.237,0.242,0.131,0.080,�k�k��,1.0,��
2020/07/02,20:00,0.166,0.153,0.247,0.237,0.245,0.131,0.082,�k�k��,2.0,��
2020/07/02,20:10,0.167,0.152,0.249,0.239,0.242,0.131,0.081,�k��,1.5,��
2020/07/02,20:20,0.167,0.154,0.248,0.239,0.241,0.133,0.080,�쐼,0.9,��
2020/07/02,20:30,0.168,0.154,0.245,0.236,0.242,0.132,0.081,-,CALM,��
2020/07/02,20:40,0.166,0.152,0.250,0.237,0.244,0.132,0.081,�쐼,2.1,��
2020/07/02,20:50,0.167,0.153,0.249,0.239,0.243,0.133,0.081,���k��,1.3,��
2020/07/02,21:00,0.168,0.154,0.246,0.238,0.241,0.132,0.081,���k��,3.2,��
2020/07/02,21:10,0.168,0.153,0.248,0.236,0.241,0.131,0.081,��,4.7,��
2020/07/02,21:20,0.167,0.152,0.249,0.240,0.244,0.132,0.080,��,4.1,��
2020/07/02,21:30,0.168,0.154,0.247,0.239,0.243,0.131,0.081,��,6.1,��
2020/07/02,21:40,0.168,0.152,0.246,0.238,0.241,0.132,0.080,���k��,6.9,��
2020/07/02,21:50,0.167,0.152,0.250,0.237,0.243,0.132,0.081,��,7.4,��
2020/07/02,22:00,0.166,0.154,0.249,0.240,0.244,0.132,0.080,��,9.2,��
2020/07/02,22:10,0.169,0.154,0.248,0.237,0.241,0.132,0.081,��,9.8,��
2020/07/02,22:20,0.169,0.153,0.248,0.238,0.240,0.133,0.081,��,11.5,��
2020/07/02,22:30,0.167,0.154,0.251,0.239,0.243,0.132,0.081,��,8.7,��
2020/07/02,22:40,0.167,0.154,0.248,0.240,0.244,0.132,0.081,��,9.8,��
2020/07/02,22:50,0.170,0.153,0.247,0.237,0.241,0.132,0.082,���k��,7.7,��
2020/07/02,23:00,0.168,0.152,0.251,0.236,0.242,0.133,0.081,�k��,4.5,��
2020/07/02,23:10,0.166,0.153,0.249,0.240,0.243,0.132,0.080,�k��,3.2,��
2020/07/02,23:20,0.168,0.153,0.247,0.238,0.243,0.132,0.081,�k,2.1,��
2020/07/02,23:30,0.168,0.152,0.247,0.237,0.241,0.132,0.081,�k�k��,2.0,��
2020/07/02,23:40,0.167,0.154,0.250,0.240,0.244,0.133,0.080,�k,3.2,��
2020/07/02,23:50,0.168,0.154,0.247,0.239,0.244,0.132,0.081,�k�k��,4.8,��
